Tekamah, NE

5:10 AM CDT on March 27, 2017 (GMT -0500)
Tekamah

Weather History for KTQE - December, 2011

Change the Weather History Date:

Wednesday, December 14, 2011

  Actual Average Record
Temperature  
Mean Temperature 40 °F -  
Max Temperature 46 °F 34 °F 59 °F (2006)
Min Temperature 33 °F 15 °F -13 °F (1985)
Degree Days  
Heating Degree Days 26    
Moisture  
Dew Point 40 °F    
Average Humidity 92    
Maximum Humidity 100    
Minimum Humidity 81    
Precipitation  
Precipitation 0.24 in - - ()
Sea Level Pressure  
Sea Level Pressure 29.81 in    
Wind  
Wind Speed 8 mph (South)    
Max Wind Speed 25 mph    
Max Gust Speed 31 mph    
Visibility 3 miles    
Events Fog , Rain    
Averages and records for this station are not official NWS values.
T = Trace of Precipitation, MM = Missing Value Source: NWS Daily Summary

Daily Weather History Graph

Daily Weather History Graph

Search for Another Location

Airport or City:

Trip Planner

Search our weather history database for the weather conditions in past years. The results will help you decide how hot, cold, wet, or windy it might be!

Date:

Astronomy

Dec. 14, 2011 Rise Set
Actual Time 7:44 AM CST 4:54 PM CST
Civil Twilight 7:12 AM CST 5:26 PM CST
Nautical Twilight 6:37 AM CST 6:01 PM CST
Astronomical Twilight 6:03 AM CST 6:34 PM CST
Moon 9:18 PM CST (12/14) 10:27 AM CST (12/14)
Length of Visible Light 10h 13m
Length of Day
9h 10m
Waning Gibbous, 83% of the Moon is Illuminated
Dec 14
Waning Gibbous
Dec 17
Last Quarter
Dec 24
New
Jan 1
First Quarter
Jan 9
Full

Hourly Weather History & Observations

Time (CST) Temp. Windchill Dew Point Humidity Pressure Visibility Wind Dir Wind Speed Gust Speed Precip Events Conditions
12:24 AM 39.2 °F 31.2 °F 37.4 °F 93% 29.95 in 1.5 mi ESE 13.8 mph - 0.00 in   Overcast
12:38 AM 39.2 °F 33.6 °F 37.4 °F 93% 30.00 in 2.5 mi South 8.1 mph - 0.00 in   Overcast
12:54 AM 39.0 °F 34.8 °F 37.9 °F 96% 29.98 in 1.8 mi SSE 5.8 mph - 0.01 in Rain Light Rain
1:14 AM 39.2 °F 34.2 °F 37.4 °F 93% 29.93 in 2.0 mi SE 6.9 mph - 0.02 in Rain Light Rain
1:31 AM 39.2 °F - 39.2 °F 100% 29.94 in 2.5 mi Calm Calm - 0.02 in   Overcast
1:44 AM 39.2 °F 33.0 °F 37.4 °F 93% 29.95 in 1.5 mi WNW 9.2 mph - 0.02 in   Overcast
1:50 AM 39.2 °F 32.5 °F 37.4 °F 93% 29.96 in 2.0 mi WNW 10.4 mph - 0.02 in   Overcast
1:54 AM 39.0 °F - 37.9 °F 96% 29.94 in 1.8 mi Calm Calm - 0.02 in   Overcast
2:20 AM 39.2 °F - 37.4 °F 93% 29.93 in 0.8 mi Calm Calm - N/A   Overcast
2:27 AM 39.2 °F 37.0 °F 37.4 °F 93% 29.93 in 1.2 mi SE 3.5 mph - N/A   Overcast
3:01 AM 39.2 °F 35.9 °F 37.4 °F 93% 29.94 in 0.5 mi SE 4.6 mph - 0.00 in Fog , Rain Light Rain
3:08 AM 39.2 °F 34.2 °F 37.4 °F 93% 29.95 in 0.8 mi SSE 6.9 mph - 0.00 in Rain Light Rain
3:15 AM 39.2 °F 32.5 °F 37.4 °F 93% 29.93 in 1.2 mi SE 10.4 mph - 0.00 in Rain Light Rain
3:25 AM 39.2 °F 32.0 °F 37.4 °F 93% 29.91 in 1.5 mi SE 11.5 mph - 0.00 in   Overcast
3:38 AM 39.2 °F 34.2 °F 39.2 °F 100% 29.89 in 2.0 mi ESE 6.9 mph - 0.00 in   Overcast
3:54 AM 39.9 °F - 39.9 °F 100% 29.92 in 2.5 mi Calm Calm - 0.00 in   Overcast
4:18 AM 39.2 °F 33.0 °F 37.4 °F 93% 29.87 in 1.8 mi ESE 9.2 mph - 0.00 in Rain Light Rain
4:34 AM 41.0 °F 34.3 °F 39.2 °F 93% 29.88 in 2.0 mi SSE 11.5 mph - 0.00 in   Overcast
4:54 AM 41.0 °F 35.8 °F 39.0 °F 93% 29.87 in 2.5 mi SE 8.1 mph - 0.00 in   Overcast
5:06 AM 41.0 °F 35.8 °F 39.2 °F 93% 29.87 in 2.5 mi South 8.1 mph - N/A   Overcast
5:22 AM 41.0 °F 36.4 °F 39.2 °F 93% 29.86 in 2.5 mi SE 6.9 mph - N/A   Overcast
5:34 AM 41.0 °F 37.1 °F 39.2 °F 93% 29.85 in 2.0 mi SE 5.8 mph - 0.00 in Rain Light Rain
6:19 AM 41.0 °F 34.3 °F 39.2 °F 93% 29.81 in 2.0 mi ESE 11.5 mph - 0.00 in Rain Light Rain
6:35 AM 41.0 °F 37.1 °F 39.2 °F 93% 29.83 in 3.0 mi SSE 5.8 mph - 0.00 in Rain Light Rain
6:54 AM 41.0 °F 39.0 °F 39.9 °F 96% 29.84 in 3.0 mi South 3.5 mph - 0.00 in   Overcast
7:03 AM 41.0 °F 37.1 °F 39.2 °F 93% 29.83 in 2.5 mi SSE 5.8 mph - N/A   Overcast
7:15 AM 41.0 °F 34.7 °F 39.2 °F 93% 29.80 in 2.5 mi SE 10.4 mph - N/A   Overcast
7:29 AM 42.8 °F 40.1 °F 39.2 °F 87% 29.80 in 4.0 mi SSE 4.6 mph - N/A   Overcast
7:43 AM 42.8 °F 40.1 °F 39.2 °F 87% 29.82 in 4.0 mi SSW 4.6 mph - N/A   Overcast
7:54 AM 42.1 °F 37.7 °F 39.9 °F 92% 29.84 in 4.0 mi South 6.9 mph - N/A   Overcast
8:13 AM 42.8 °F 38.6 °F 39.2 °F 87% 29.82 in 3.0 mi South 6.9 mph - N/A   Overcast
8:28 AM 42.8 °F 39.3 °F 41.0 °F 93% 29.82 in 2.5 mi South 5.8 mph - 0.00 in Rain Light Rain
8:37 AM 42.8 °F 39.3 °F 41.0 °F 93% 29.82 in 3.0 mi SSE 5.8 mph - 0.00 in Rain Light Rain
8:46 AM 42.8 °F 40.1 °F 41.0 °F 93% 29.82 in 1.8 mi SSE 4.6 mph - 0.01 in Rain Light Rain
8:54 AM 42.1 °F 38.4 °F 41.0 °F 96% 29.82 in 1.2 mi SSE 5.8 mph - 0.01 in Rain Light Rain
9:16 AM 42.8 °F 40.1 °F 41.0 °F 93% 29.79 in 1.2 mi ESE 4.6 mph - 0.01 in Rain Light Rain
9:27 AM 42.8 °F 38.0 °F 42.8 °F 100% 29.80 in 1.8 mi SSE 8.1 mph - 0.01 in Rain Light Rain
9:38 AM 42.8 °F 38.6 °F 42.8 °F 100% 29.80 in 1.8 mi SSE 6.9 mph - 0.01 in Rain Light Rain
9:54 AM 44.1 °F 39.5 °F 42.1 °F 93% 29.78 in 1.2 mi SE 8.1 mph - 0.02 in Rain Light Rain
10:03 AM 44.6 °F 40.2 °F 42.8 °F 93% 29.77 in 1.8 mi SE 8.1 mph - 0.01 in Rain Light Rain
10:11 AM 44.6 °F 40.7 °F 42.8 °F 93% 29.77 in 1.5 mi SE 6.9 mph - 0.01 in Rain Light Rain
10:21 AM 44.6 °F 40.2 °F 42.8 °F 93% 29.78 in 2.0 mi SSE 8.1 mph - 0.02 in Rain Light Rain
10:24 AM 44.6 °F 40.7 °F 42.8 °F 93% 29.78 in 2.0 mi SSE 6.9 mph - 0.02 in Rain Light Rain
10:35 AM 44.6 °F 40.7 °F 42.8 °F 93% 29.77 in 1.5 mi SE 6.9 mph - 0.04 in Rain Rain
10:54 AM 44.1 °F 38.6 °F 43.0 °F 96% 29.76 in 1.8 mi SE 10.4 mph - 0.07 in Rain Light Rain
11:07 AM 44.6 °F 39.7 °F 42.8 °F 93% 29.74 in 3.0 mi SSE 9.2 mph - 0.00 in Rain Light Rain
11:46 AM 44.6 °F 38.8 °F 42.8 °F 93% 29.71 in 2.5 mi SE 11.5 mph - 0.02 in Rain Light Rain
12:00 PM 44.6 °F 38.4 °F 44.6 °F 100% 29.70 in 1.5 mi SSE 12.7 mph - 0.02 in Rain Rain
12:14 PM 46.4 °F 42.4 °F 44.6 °F 93% 29.69 in 0.8 mi SSE 8.1 mph - 0.08 in Rain Rain
12:22 PM 46.4 °F 41.5 °F 44.6 °F 93% 29.70 in 1.8 mi SSE 10.4 mph - 0.08 in Rain Light Rain
12:54 PM 46.0 °F 42.5 °F 45.0 °F 96% 29.69 in 1.0 mi South 6.9 mph - 0.10 in Rain Light Rain
1:01 PM 46.4 °F 42.9 °F 44.6 °F 93% 29.67 in 0.8 mi SSE 6.9 mph - 0.00 in Rain Light Rain
1:54 PM 46.9 °F - 45.0 °F 93% 29.67 in 0.2 mi Calm Calm - 0.01 in Fog , Rain Light Rain
2:32 PM 46.4 °F 42.9 °F 44.6 °F 93% 29.66 in 1.2 mi NW 6.9 mph - 0.02 in   Overcast
2:39 PM 46.4 °F 43.5 °F 44.6 °F 93% 29.66 in 1.5 mi NW 5.8 mph - 0.02 in   Overcast
3:01 PM 46.4 °F 42.4 °F 44.6 °F 93% 29.66 in 3.0 mi NW 8.1 mph - N/A   Overcast
3:08 PM 46.4 °F 43.5 °F 44.6 °F 93% 29.67 in 9.0 mi NW 5.8 mph - N/A   Overcast
3:29 PM 46.4 °F 44.3 °F 44.6 °F 93% 29.67 in 3.0 mi WNW 4.6 mph - N/A   Overcast
3:37 PM 46.4 °F 44.3 °F 44.6 °F 93% 29.66 in 2.5 mi WNW 4.6 mph - N/A   Overcast
3:44 PM 46.4 °F 45.2 °F 44.6 °F 93% 29.66 in 5.0 mi WNW 3.5 mph - N/A   Overcast
3:54 PM 46.0 °F 43.1 °F 44.1 °F 93% 29.68 in 10.0 mi WNW 5.8 mph - N/A   Overcast
4:49 PM 44.6 °F 39.7 °F 42.8 °F 93% 29.70 in 10.0 mi WNW 9.2 mph - N/A   Overcast
4:54 PM 45.0 °F 41.2 °F 42.1 °F 90% 29.70 in 10.0 mi WNW 6.9 mph - N/A   Overcast
5:24 PM 44.6 °F 40.2 °F 41.0 °F 87% 29.71 in 10.0 mi WNW 8.1 mph - N/A   Overcast
5:54 PM 44.1 °F 36.5 °F 39.9 °F 85% 29.74 in 10.0 mi NW 17.3 mph 24.2 mph N/A   Overcast
6:30 PM 41.0 °F 32.5 °F 37.4 °F 87% 29.76 in 3.0 mi NNW 17.3 mph - N/A   Overcast
6:41 PM 41.0 °F 33.1 °F 35.6 °F 81% 29.77 in 4.0 mi NW 15.0 mph - N/A   Haze
6:54 PM 39.9 °F 31.4 °F 36.0 °F 86% 29.79 in 5.0 mi NW 16.1 mph - N/A   Overcast
7:54 PM 37.9 °F 27.9 °F 33.1 °F 83% 29.82 in 5.0 mi NW 19.6 mph 26.5 mph N/A   Haze
8:54 PM 37.0 °F 27.4 °F 32.0 °F 82% 29.84 in 6.0 mi NW 17.3 mph - N/A   Haze
9:54 PM 36.0 °F 23.9 °F 30.9 °F 82% 29.85 in 6.0 mi NW 25.3 mph 31.1 mph N/A   Haze
10:22 PM 35.6 °F 24.5 °F 30.2 °F 81% 29.85 in 6.0 mi NW 20.7 mph 26.5 mph N/A   Haze
10:54 PM 35.1 °F 25.9 °F 30.0 °F 82% 29.87 in 6.0 mi WNW 13.8 mph - N/A   Haze
11:14 PM 33.8 °F 25.3 °F 28.4 °F 81% 29.87 in 6.0 mi NW 11.5 mph - N/A   Haze
11:54 PM 34.0 °F 26.6 °F 28.9 °F 82% 29.88 in 5.0 mi NW 9.2 mph - N/A   Haze